Regional Weather Roundup
Issued by NWS

Home | Current Version | Previous Version | Graphics & Text | Print | Product List | Glossary On
Versions: 1 2 3 4 5 6 7 8 9 10 11 12 13 14 15 16 17 18 19 20 21 22 23 24 25 26 27 28 29 30 31 32 33 34 35 36 37 38 39 40 41 42 43 44 45 46 47 48 49 50
000
ASUS43 KDMX 242201
RWRIA

WEATHER ROUNDUP FOR IOWA
NATIONAL WEATHER SERVICE DES MOINES IA
500 PM CDT FRI MAR 24 2017

NOTE: "FAIR" INDICATES FEW OR NO CLOUDS BELOW 12,000 FEET WITH NO
SIGNIFICANT WEATHER AND/OR OBSTRUCTIONS TO VISIBILITY.

* - THESE STATIONS ARE NOT NWS STATIONS...THUS NOT UNDER NWS
QUALITY CONTROL.  THEY ALSO DO NOT REPORT WEATHER SUCH
AS PRECIPITATION OR FOG.

IAZ001>003-012>014-020>022-031>034-043>046-242300-
   NORTHWEST IOWA

CITY           SKY/WX    TMP DP  RH WIND       PRES   REMARKS
CARROLL *      CLOUDY    43  43 100 NE16G26   29.96S FOG
CHEROKEE *     CLOUDY    42  40  91 N14       30.01S
LE MARS *      CLOUDY    43  39  87 NE10G21   30.05R
ORANGE CITY *  CLOUDY    41  39  93 NE9G18    30.04
SHELDON *      CLOUDY    43  43 100 NE18G25   30.02S
SIOUX CITY     CLOUDY    43  39  86 N15       30.01F
SPENCER        CLOUDY    42  39  89 NE18      30.03S
STORM LAKE *   CLOUDY    41  39  93 NE20      30.00R
$$

IAZ055>058-069>071-079>083-090>094-242300-
   SOUTHWEST IOWA

CITY           SKY/WX    TMP DP  RH WIND       PRES   REMARKS
ATLANTIC *     CLOUDY    45  43  93 NE15      29.95R
AUDUBON *      CLOUDY    43  39  87 NE12G18   29.98R FOG
CLARINDA *     CLOUDY    52  52 100 NE10      29.93R
COUNCIL BLFS * MIX PCPN  45  45 100 N15G22    29.96R
CRESTON *      CLOUDY    48  48 100 NE17      29.92F FOG
HARLAN  *      CLOUDY    43  43 100 NE14G21   30.00R
LAMONI         LGT RAIN  56  54  93 SE7       29.91R FOG
RED OAK *      CLOUDY    48  46  93 NE16      29.93R FOG
SHENANDOAH *   CLOUDY    50  48  93 N14G20    29.93R FOG
$$

IAZ047>049-059>061-072>074-084-242300-
   CENTRAL IOWA

CITY           SKY/WX    TMP DP  RH WIND       PRES   REMARKS
AMES           CLOUDY    46  45  96 NE12      29.96R FOG
ANKENY *       CLOUDY    48  45  87 NE10      29.96R
BOONE *        CLOUDY    45  45 100 NE16G22   29.95S
CHARITON *     CLOUDY    57  55  94 SE6       29.93R
DES MOINES     CLOUDY    50  46  86 N10       29.94S FOG
GRINNELL*      RAIN      49  47  93 NE8       29.95F
MARSHALLTOWN   CLOUDY    47  45  93 NE16      29.95R FOG
NEWTON *       CLOUDY    50  48  93 N8        29.94R FOG
PELLA *        MIX PCPN  52  51  97 CALM      29.95R
PERRY *        CLOUDY    45  43  94 N12       29.96S FOG
$$

IAZ004>006-015-016-023>025-035-036-242300-
   NORTH CENTRAL IOWA

CITY           SKY/WX    TMP DP  RH WIND       PRES   REMARKS
ALGONA *       PTSUNNY   41  41 100 NE20G25   30.00F FOG
CLARION *      CLOUDY    43  43 100 NE16      29.99R
ESTHERVILLE    CLOUDY    41  39  93 N17       30.04R
FORT DODGE *   CLOUDY    43  37  81 N13G21    30.00R
MASON CITY     CLOUDY    42  38  85 N17       30.01R
FOREST CITY *  CLOUDY    41  41 100 N13       30.01S
WEBSTER CITY * CLOUDY    43  41  93 NE10G20   29.96R
IOWA FALLS *   CLOUDY    45  41  85 N16       29.97R
$$

IAZ007>011-017>019-026>030-037>042-050>054-066-242300-
   NORTHEAST IOWA

CITY           SKY/WX    TMP DP  RH WIND       PRES   REMARKS
CEDAR RAPIDS   LGT RAIN  53  53 100 SE3       29.94R FOG
CHARLES CITY * CLOUDY    43  43 100 N17G23    29.99R
CLINTON *      CLOUDY    68  48  48 W23G29    29.94R
DECORAH *      MIX PCPN  43  39  87 N9        29.98R
DUBUQUE        CLOUDY    54  51  90 CALM      29.94S FOG
MONTICELLO *   LGT RAIN  54  54 100 S6        29.95R
OELWEIN *      CLOUDY    45  45 100 NE10G16   29.97R
WATERLOO       CLOUDY    45  41  86 N8        29.97R FOG
$$

IAZ064-065-067-068-078-242300-
   EAST CENTRAL IOWA

CITY           SKY/WX    TMP DP  RH WIND       PRES   REMARKS
DAVENPORT      CLOUDY    68  44  42 W20       29.93R
IOWA CITY      RAIN      56  53  90 CALM      29.96F FOG
MUSCATINE *    LGT RAIN  59  54  82 NW13G18   29.92F
QUAD CITIES    CLOUDY    70  44  39 W17       29.92R
$$

IAZ062-063-075>077-085>089-095>099-242300-
   SOUTHEAST IOWA

CITY           SKY/WX    TMP DP  RH WIND       PRES   REMARKS
BURLINGTON     CLOUDY    60  55  83 W6        29.93F
FAIRFIELD *    CLOUDY    57  54  88 SW5       29.92F
FORT MADISON * LGT RAIN  59  52  77 W5        29.95F
KEOKUK *       CLOUDY    59  55  88 CALM      29.93S
OSKALOOSA *    LGT RAIN  57  56  96 CALM      29.92F
CENTERVILLE *  LGT RAIN  55  55 100 CALM      29.95R
OTTUMWA        CLOUDY    58  57  97 S8        29.91F
WASHINGTON *   LGT RAIN  57  55  94 NW8       29.92F
$$

ABBREVIATIONS USED IN REMARKS
   TC - TEMPERATURES IN CELSIUS
  WCI - WIND CHILL INDEX
   HX - HEAT INDEX
  VSB - VISIBILITY
$$





USA.gov is the U.S. government's official web portal to all federal, state and local government web resources and services.